TimeEDT,TemperatureF,Dew PointF,Humidity,Sea Level PressureIn,VisibilityMPH,Wind Direction,Wind SpeedMPH,Gust SpeedMPH,PrecipitationIn,Events,Conditions,WindDirDegrees,DateUTC
12:56 AM,71.1,68.0,90,29.94,10.0,SSW,3.5,-,N/A,,Mostly Cloudy,200,2013-07-21 04:56:00
1:56 AM,70.0,68.0,93,29.93,10.0,WSW,3.5,-,N/A,,Mostly Cloudy,250,2013-07-21 05:56:00
2:56 AM,69.1,68.0,96,29.93,9.0,West,3.5,-,N/A,,Mostly Cloudy,260,2013-07-21 06:56:00
3:56 AM,69.1,66.9,93,29.93,8.0,WSW,4.6,-,N/A,,Mostly Cloudy,240,2013-07-21 07:56:00
4:45 AM,69.8,66.2,88,29.94,7.0,Calm,Calm,-,N/A,,Mostly Cloudy,0,2013-07-21 08:45:00
4:56 AM,69.1,68.0,96,29.93,7.0,Calm,Calm,-,N/A,,Mostly Cloudy,0,2013-07-21 08:56:00
5:34 AM,69.8,68.0,94,29.96,4.0,Calm,Calm,-,N/A,,Mostly Cloudy,0,2013-07-21 09:34:00
5:43 AM,69.8,69.8,100,29.96,1.5,Calm,Calm,-,N/A,,Overcast,0,2013-07-21 09:43:00
5:56 AM,70.0,68.0,93,29.94,1.0,North,3.5,-,N/A,,Overcast,350,2013-07-21 09:56:00
6:08 AM,69.8,69.8,100,29.96,0.8,Calm,Calm,-,N/A,,Overcast,0,2013-07-21 10:08:00
6:56 AM,70.0,69.1,97,29.96,0.2,Calm,Calm,-,N/A,Fog,Fog,0,2013-07-21 10:56:00
7:56 AM,70.0,69.1,97,29.96,0.5,Calm,Calm,-,N/A,Fog,Fog,0,2013-07-21 11:56:00
8:29 AM,69.8,69.8,100,29.98,2.0,Calm,Calm,-,N/A,,Overcast,0,2013-07-21 12:29:00
8:56 AM,71.1,68.0,90,29.97,3.0,Calm,Calm,-,N/A,,Overcast,0,2013-07-21 12:56:00
9:36 AM,73.4,69.8,88,30.00,5.0,Calm,Calm,-,N/A,,Overcast,0,2013-07-21 13:36:00
9:56 AM,73.0,69.1,87,29.98,5.0,Calm,Calm,-,N/A,,Overcast,0,2013-07-21 13:56:00
10:20 AM,75.2,69.8,83,30.00,6.0,Calm,Calm,-,N/A,,Haze,0,2013-07-21 14:20:00
10:56 AM,77.0,70.0,79,29.99,8.0,Calm,Calm,-,N/A,,Mostly Cloudy,0,2013-07-21 14:56:00
11:56 AM,80.1,70.0,71,29.99,10.0,Variable,3.5,-,N/A,,Mostly Cloudy,0,2013-07-21 15:56:00
12:56 PM,82.0,70.0,67,29.98,10.0,Variable,3.5,-,N/A,,Mostly Cloudy,0,2013-07-21 16:56:00
1:56 PM,82.0,69.1,65,29.97,10.0,NNW,3.5,-,N/A,,Mostly Cloudy,330,2013-07-21 17:56:00
2:56 PM,82.9,68.0,60,29.96,10.0,Variable,3.5,-,N/A,,Overcast,0,2013-07-21 18:56:00
3:56 PM,82.9,68.0,60,29.94,10.0,East,3.5,-,N/A,,Overcast,80,2013-07-21 19:56:00
4:56 PM,82.9,66.9,58,29.94,10.0,ENE,3.5,-,N/A,,Mostly Cloudy,70,2013-07-21 20:56:00
5:56 PM,82.9,68.0,60,29.92,10.0,ENE,4.6,-,N/A,,Mostly Cloudy,60,2013-07-21 21:56:00
6:56 PM,82.0,68.0,62,29.91,10.0,East,8.1,-,N/A,,Mostly Cloudy,90,2013-07-21 22:56:00
7:56 PM,80.1,68.0,67,29.90,10.0,ESE,5.8,-,N/A,,Mostly Cloudy,110,2013-07-21 23:56:00
8:56 PM,79.0,68.0,69,29.91,10.0,SE,5.8,-,N/A,,Overcast,130,2013-07-22 00:56:00
9:56 PM,78.1,68.0,71,29.94,10.0,SSE,3.5,-,N/A,,Mostly Cloudy,150,2013-07-22 01:56:00
10:56 PM,77.0,69.1,76,29.94,10.0,ESE,4.6,-,N/A,,Overcast,120,2013-07-22 02:56:00
11:56 PM,75.9,69.1,79,29.92,10.0,East,5.8,-,N/A,,Overcast,100,2013-07-22 03:56:00